Du Bois, PA

12:05 AM EDT on March 28, 2017 (GMT -0400)
Du Bois-Jefferson County

Weather History for KDUJ - July, 2013

Change the Weather History Date:

Friday, July 12, 2013

  Actual Average Record
Temperature  
Mean Temperature 67 °F 69 °F  
Max Temperature 75 °F 79 °F 88 °F (2005)
Min Temperature 58 °F 58 °F 47 °F (1973)
Degree Days  
Heating Degree Days 0 1  
Month to date heating degree days 0 12  
Since 1 June heating degree days 38 97  
Since 1 July heating degree days 0 12  
Cooling Degree Days 2 4  
Month to date cooling degree days 96 48  
Year to date cooling degree days 247 142  
Since 1 June cooling degree days 188 119  
Growing Degree Days 17 (Base 50)    
Moisture  
Dew Point 57 °F    
Average Humidity 69    
Maximum Humidity 84    
Minimum Humidity 54    
Precipitation  
Precipitation 0.00 in 0.14 in 2.03 in (1990)
Month to date precipitation 2.50 1.69  
Sea Level Pressure  
Sea Level Pressure 30.08 in    
Wind  
Wind Speed 7 mph (NE)    
Max Wind Speed 15 mph    
Max Gust Speed 20 mph    
Visibility 10 miles    
Events      
T = Trace of Precipitation, MM = Missing Value Source: NWS Daily Summary

Daily Weather History Graph

Daily Weather History Graph

Search for Another Location

Airport or City:

Trip Planner

Search our weather history database for the weather conditions in past years. The results will help you decide how hot, cold, wet, or windy it might be!

Date:

Astronomy

Jul. 12, 2013 Rise Set
Actual Time 5:53 AM EDT 8:48 PM EDT
Civil Twilight 5:20 AM EDT 9:21 PM EDT
Nautical Twilight 4:39 AM EDT 10:02 PM EDT
Astronomical Twilight 3:50 AM EDT 10:50 PM EDT
Moon 10:11 AM EDT (7/12) 10:54 PM EDT (7/12)
Length of Visible Light 16h 00m
Length of Day
14h 54m
Waxing Crescent, 17% of the Moon is Illuminated
Jul 12
Waxing Crescent
Jul 15
First Quarter
Jul 22
Full
Jul 29
Last Quarter
Aug 6
New

Hourly Weather History & Observations

Time (EDT) Temp. Dew Point Humidity Pressure Visibility Wind Dir Wind Speed Gust Speed Precip Events Conditions
12:56 AM 62.1 °F 54.0 °F 75% 30.01 in 10.0 mi North 4.6 mph - N/A   Mostly Cloudy
1:56 AM 61.0 °F 54.0 °F 78% 30.01 in 10.0 mi NNE 5.8 mph - N/A   Partly Cloudy
2:56 AM 61.0 °F 54.0 °F 78% 30.02 in 10.0 mi NE 3.5 mph - N/A   Mostly Cloudy
3:56 AM 61.0 °F 55.0 °F 81% 30.03 in 10.0 mi NE 4.6 mph - N/A   Mostly Cloudy
4:56 AM 59.0 °F 54.0 °F 83% 30.03 in 10.0 mi Calm Calm - N/A   Clear
5:56 AM 60.1 °F 55.0 °F 83% 30.04 in 10.0 mi NNE 5.8 mph - N/A   Overcast
6:56 AM 60.1 °F 55.9 °F 86% 30.06 in 10.0 mi ENE 4.6 mph - N/A   Clear
7:56 AM 62.1 °F 55.9 °F 80% 30.07 in 10.0 mi NE 6.9 mph - N/A   Clear
8:56 AM 64.9 °F 57.0 °F 75% 30.09 in 10.0 mi NE 5.8 mph - N/A   Clear
9:56 AM 66.9 °F 57.9 °F 73% 30.09 in 10.0 mi NE 9.2 mph - N/A   Clear
10:56 AM 68.0 °F 57.9 °F 70% 30.10 in 10.0 mi NE 8.1 mph - N/A   Clear
11:56 AM 69.1 °F 59.0 °F 70% 30.10 in 10.0 mi ENE 9.2 mph - N/A   Clear
12:56 PM 71.1 °F 60.1 °F 68% 30.11 in 10.0 mi NE 5.8 mph - N/A   Partly Cloudy
1:56 PM 71.1 °F 59.0 °F 66% 30.11 in 10.0 mi NE 9.2 mph - N/A   Clear
2:56 PM 72.0 °F 60.1 °F 66% 30.10 in 10.0 mi NE 8.1 mph - N/A   Clear
3:56 PM 73.0 °F 61.0 °F 66% 30.10 in 10.0 mi NE 9.2 mph - N/A   Scattered Clouds
4:56 PM 75.0 °F 59.0 °F 57% 30.09 in 10.0 mi ENE 9.2 mph - N/A   Scattered Clouds
5:56 PM 75.0 °F 57.0 °F 53% 30.09 in 10.0 mi NE 8.1 mph - N/A   Clear
6:56 PM 72.0 °F 57.0 °F 59% 30.10 in 10.0 mi NE 8.1 mph - N/A   Clear
7:56 PM 70.0 °F 57.9 °F 65% 30.11 in 10.0 mi NE 4.6 mph - N/A   Partly Cloudy
8:56 PM 66.9 °F 57.9 °F 73% 30.12 in 10.0 mi NE 5.8 mph - N/A   Clear
9:56 PM 66.0 °F 57.9 °F 75% 30.13 in 10.0 mi NNE 5.8 mph - N/A   Clear
10:56 PM 64.9 °F 57.9 °F 78% 30.14 in 10.0 mi North 6.9 mph - N/A   Clear
11:56 PM 64.0 °F 57.0 °F 78% 30.14 in 10.0 mi NE 6.9 mph - N/A   Partly Cloudy